Time,TemperatureF,DewpointF,PressureIn,WindDirection,WindDirectionDegrees,WindSpeedMPH,WindSpeedGustMPH,Humidity,HourlyPrecipIn,Conditions,Clouds,dailyrainin,SoftwareType,DateUTC
2013-04-25 00:01:00,61.1,49.7,29.84,South,184,0.0,0.1,66,0.00,CLR,,0.00,WeatherDisplay:10.37,2013-04-25 07:01:00,
2013-04-25 00:06:00,61.1,50.1,29.84,WSW,243,0.0,0.0,67,0.00,CLR,,0.00,WeatherDisplay:10.37,2013-04-25 07:06:00,
2013-04-25 00:11:00,61.0,49.6,29.84,NNW,345,0.0,0.0,66,0.00,CLR,,0.00,WeatherDisplay:10.37,2013-04-25 07:11:00,
2013-04-25 00:16:00,61.0,49.6,29.84,SE,139,1.2,0.0,66,0.00,CLR,,0.00,WeatherDisplay:10.37,2013-04-25 07:16:00,
2013-04-25 00:21:00,60.9,49.9,29.85,SE,128,1.2,0.0,67,0.00,CLR,,0.00,WeatherDisplay:10.37,2013-04-25 07:21:00,
2013-04-25 00:26:00,60.8,49.8,29.84,SE,142,0.0,0.0,67,0.00,CLR,,0.00,WeatherDisplay:10.37,2013-04-25 07:26:00,
2013-04-25 00:31:00,60.6,49.6,29.84,SE,134,1.2,0.0,67,0.00,CLR,,0.00,WeatherDisplay:10.37,2013-04-25 07:31:00,
2013-04-25 00:36:00,60.5,49.5,29.84,SSE,167,0.0,0.0,67,0.00,CLR,,0.00,WeatherDisplay:10.37,2013-04-25 07:36:00,
2013-04-25 00:41:00,60.4,49.8,29.84,WSW,240,0.0,0.0,68,0.00,CLR,,0.00,WeatherDisplay:10.37,2013-04-25 07:41:00,
2013-04-25 00:46:00,60.3,49.7,29.84,SE,126,0.0,0.0,68,0.00,CLR,,0.00,WeatherDisplay:10.37,2013-04-25 07:46:00,
2013-04-25 00:51:00,60.2,49.6,29.84,SE,128,0.0,0.0,68,0.00,CLR,,0.00,WeatherDisplay:10.37,2013-04-25 07:51:00,
2013-04-25 00:56:00,60.0,49.4,29.85,ESE,120,1.2,0.0,68,0.00,CLR,,0.00,WeatherDisplay:10.37,2013-04-25 07:56:00,
2013-04-25 01:01:00,59.9,49.7,29.85,SE,126,0.0,0.0,69,0.00,CLR,,0.00,WeatherDisplay:10.37,2013-04-25 08:01:00,
2013-04-25 01:06:00,59.8,49.6,29.85,SE,125,1.2,1.2,69,0.00,CLR,,0.00,WeatherDisplay:10.37,2013-04-25 08:06:00,
2013-04-25 01:11:00,59.7,49.5,29.85,ESE,120,0.0,0.1,69,0.00,CLR,,0.00,WeatherDisplay:10.37,2013-04-25 08:11:00,
2013-04-25 01:16:00,59.6,49.8,29.85,ESE,117,1.2,0.0,70,0.00,CLR,,0.00,WeatherDisplay:10.37,2013-04-25 08:16:00,
2013-04-25 01:21:00,59.5,49.7,29.85,ESE,122,0.0,0.0,70,0.00,CLR,,0.00,WeatherDisplay:10.37,2013-04-25 08:21:00,
2013-04-25 01:26:00,59.4,49.6,29.85,ESE,120,1.2,1.2,70,0.00,CLR,,0.00,WeatherDisplay:10.37,2013-04-25 08:26:00,
2013-04-25 01:31:00,59.3,49.5,29.85,SE,126,0.0,0.0,70,0.00,CLR,,0.00,WeatherDisplay:10.37,2013-04-25 08:31:00,
2013-04-25 01:36:00,59.3,49.5,29.85,ESE,117,1.2,0.0,70,0.00,CLR,,0.00,WeatherDisplay:10.37,2013-04-25 08:36:00,
2013-04-25 01:41:00,59.2,49.4,29.85,ESE,115,1.2,1.2,70,0.00,CLR,,0.00,WeatherDisplay:10.37,2013-04-25 08:41:00,
2013-04-25 01:46:00,59.1,49.3,29.85,ESE,111,1.2,0.0,70,0.00,CLR,,0.00,WeatherDisplay:10.37,2013-04-25 08:46:00,
2013-04-25 01:51:00,59.0,49.6,29.85,ESE,117,1.2,1.2,71,0.00,CLR,,0.00,WeatherDisplay:10.37,2013-04-25 08:51:00,
2013-04-25 01:56:00,59.0,49.6,29.85,ESE,120,0.0,0.0,71,0.00,CLR,,0.00,WeatherDisplay:10.37,2013-04-25 08:56:00,
2013-04-25 02:01:00,58.9,49.5,29.85,ESE,120,0.0,0.0,71,0.00,CLR,,0.00,WeatherDisplay:10.37,2013-04-25 09:01:00,
2013-04-25 02:06:00,58.8,49.4,29.85,ESE,122,0.0,0.0,71,0.00,CLR,,0.00,WeatherDisplay:10.37,2013-04-25 09:06:00,
2013-04-25 02:11:00,58.8,49.4,29.85,ESE,105,1.2,1.2,71,0.00,CLR,,0.00,WeatherDisplay:10.37,2013-04-25 09:11:00,
2013-04-25 02:16:00,58.7,49.3,29.85,SE,133,2.3,2.3,71,0.00,CLR,,0.00,WeatherDisplay:10.37,2013-04-25 09:16:00,
2013-04-25 02:21:00,58.6,49.2,29.86,SE,129,0.0,0.2,71,0.00,CLR,,0.00,WeatherDisplay:10.37,2013-04-25 09:21:00,
2013-04-25 02:26:00,58.5,49.5,29.85,SE,132,0.0,0.2,72,0.00,CLR,,0.00,WeatherDisplay:10.37,2013-04-25 09:26:00,
2013-04-25 02:31:00,58.3,49.3,29.86,ESE,108,1.2,1.2,72,0.00,CLR,,0.00,WeatherDisplay:10.37,2013-04-25 09:31:00,
2013-04-25 02:36:00,58.0,49.4,29.86,SE,139,0.0,0.2,73,0.00,CLR,,0.00,WeatherDisplay:10.37,2013-04-25 09:36:00,
2013-04-25 02:41:00,57.8,49.2,29.86,SE,137,0.0,0.1,73,0.00,CLR,,0.00,WeatherDisplay:10.37,2013-04-25 09:41:00,
2013-04-25 02:46:00,57.6,49.4,29.86,ESE,120,0.0,0.1,74,0.00,CLR,,0.00,WeatherDisplay:10.37,2013-04-25 09:46:00,
2013-04-25 02:51:00,57.5,49.3,29.86,SE,142,0.0,0.0,74,0.00,CLR,,0.00,WeatherDisplay:10.37,2013-04-25 09:51:00,
2013-04-25 02:56:00,57.4,49.2,29.86,SE,134,1.2,1.2,74,0.00,CLR,,0.00,WeatherDisplay:10.37,2013-04-25 09:56:00,
2013-04-25 03:01:00,57.3,49.1,29.86,ESE,103,1.2,0.0,74,0.00,CLR,,0.00,WeatherDisplay:10.37,2013-04-25 10:01:00,
2013-04-25 03:06:00,57.2,49.0,29.86,East,101,0.0,0.0,74,0.00,CLR,,0.00,WeatherDisplay:10.37,2013-04-25 10:06:00,
2013-04-25 03:11:00,57.2,49.0,29.86,ESE,117,0.0,0.0,74,0.00,CLR,,0.00,WeatherDisplay:10.37,2013-04-25 10:11:00,
2013-04-25 03:16:00,57.1,48.9,29.86,ESE,117,0.0,0.0,74,0.00,CLR,,0.00,WeatherDisplay:10.37,2013-04-25 10:16:00,
2013-04-25 03:21:00,57.0,48.8,29.86,ESE,117,0.0,0.0,74,0.00,CLR,,0.00,WeatherDisplay:10.37,2013-04-25 10:21:00,
2013-04-25 03:26:00,56.9,48.7,29.86,ESE,117,0.0,0.0,74,0.00,CLR,,0.00,WeatherDisplay:10.37,2013-04-25 10:26:00,
2013-04-25 03:31:00,56.8,48.6,29.86,ESE,117,0.0,0.0,74,0.00,CLR,,0.00,WeatherDisplay:10.37,2013-04-25 10:31:00,
2013-04-25 03:36:00,56.7,48.5,29.87,ESE,117,0.0,0.0,74,0.00,CLR,,0.00,WeatherDisplay:10.37,2013-04-25 10:36:00,
2013-04-25 03:41:00,56.7,48.5,29.87,ESE,117,1.2,0.0,74,0.00,CLR,,0.00,WeatherDisplay:10.37,2013-04-25 10:41:00,
2013-04-25 03:46:00,56.7,48.5,29.87,ESE,117,0.0,0.0,74,0.00,CLR,,0.00,WeatherDisplay:10.37,2013-04-25 10:46:00,
2013-04-25 03:51:00,56.7,48.5,29.87,ESE,117,0.0,0.0,74,0.00,CLR,,0.00,WeatherDisplay:10.37,2013-04-25 10:51:00,
2013-04-25 03:56:00,56.6,48.8,29.87,ESE,117,0.0,0.0,75,0.00,CLR,,0.00,WeatherDisplay:10.37,2013-04-25 10:56:00,
2013-04-25 04:01:00,56.7,48.9,29.87,SE,143,0.0,0.0,75,0.00,CLR,,0.00,WeatherDisplay:10.37,2013-04-25 11:01:00,
2013-04-25 04:06:00,56.8,48.6,29.87,SE,132,1.2,1.2,74,0.00,CLR,,0.00,WeatherDisplay:10.37,2013-04-25 11:06:00,
2013-04-25 04:11:00,56.8,48.6,29.88,ESE,107,1.2,0.0,74,0.00,CLR,,0.00,WeatherDisplay:10.37,2013-04-25 11:11:00,
2013-04-25 04:16:00,56.7,48.5,29.88,ESE,107,1.2,0.0,74,0.00,CLR,,0.00,WeatherDisplay:10.37,2013-04-25 11:16:00,
2013-04-25 04:21:00,56.6,48.8,29.88,ESE,107,1.2,0.0,75,0.00,CLR,,0.00,WeatherDisplay:10.37,2013-04-25 11:21:00,
2013-04-25 04:26:00,56.5,48.7,29.88,East,101,1.2,1.2,75,0.00,CLR,,0.00,WeatherDisplay:10.37,2013-04-25 11:26:00,
2013-04-25 04:31:00,56.2,48.4,29.88,East,101,1.2,0.0,75,0.00,CLR,,0.00,WeatherDisplay:10.37,2013-04-25 11:31:00,
2013-04-25 04:36:00,56.1,48.3,29.88,East,101,1.2,0.0,75,0.00,CLR,,0.00,WeatherDisplay:10.37,2013-04-25 11:36:00,
2013-04-25 04:41:00,55.9,48.1,29.88,ESE,117,0.0,0.0,75,0.00,CLR,,0.00,WeatherDisplay:10.37,2013-04-25 11:41:00,
2013-04-25 04:46:00,55.7,48.2,29.88,ESE,115,1.2,1.2,76,0.00,CLR,,0.00,WeatherDisplay:10.37,2013-04-25 11:46:00,
2013-04-25 04:51:00,55.6,48.2,29.88,SE,128,1.2,1.2,76,0.00,CLR,,0.00,WeatherDisplay:10.37,2013-04-25 11:51:00,
2013-04-25 04:56:00,55.5,48.1,29.88,ESE,117,1.2,1.2,76,0.00,CLR,,0.00,WeatherDisplay:10.37,2013-04-25 11:56:00,
2013-04-25 05:01:00,55.4,48.0,29.89,ESE,120,1.2,0.0,76,0.00,CLR,,0.00,WeatherDisplay:10.37,2013-04-25 12:01:00,
2013-04-25 05:06:00,55.3,47.9,29.89,ESE,114,0.0,0.0,76,0.00,CLR,,0.00,WeatherDisplay:10.37,2013-04-25 12:06:00,
2013-04-25 05:11:00,55.2,47.8,29.89,ESE,115,0.0,0.0,76,0.00,CLR,,0.00,WeatherDisplay:10.37,2013-04-25 12:11:00,
2013-04-25 05:16:00,55.1,47.7,29.89,ESE,117,0.0,0.0,76,0.00,CLR,,0.00,WeatherDisplay:10.37,2013-04-25 12:16:00,
2013-04-25 05:21:00,55.0,47.9,29.89,ESE,117,0.0,0.0,77,0.00,CLR,,0.00,WeatherDisplay:10.37,2013-04-25 12:21:00,
2013-04-25 05:26:00,54.8,47.7,29.89,ESE,117,0.0,0.0,77,0.00,CLR,,0.00,WeatherDisplay:10.37,2013-04-25 12:26:00,
2013-04-25 05:31:00,54.6,47.9,29.89,ESE,117,0.0,0.0,78,0.00,CLR,,0.00,WeatherDisplay:10.37,2013-04-25 12:31:00,
2013-04-25 05:36:00,54.5,47.8,29.89,ESE,117,0.0,0.0,78,0.00,CLR,,0.00,WeatherDisplay:10.37,2013-04-25 12:36:00,
2013-04-25 05:41:00,54.7,47.6,29.90,ESE,111,1.2,0.0,77,0.00,CLR,,0.00,WeatherDisplay:10.37,2013-04-25 12:41:00,
2013-04-25 05:46:00,54.9,47.8,29.90,ESE,114,1.2,1.2,77,0.00,CLR,,0.00,WeatherDisplay:10.37,2013-04-25 12:46:00,
2013-04-25 05:51:00,55.1,48.0,29.90,ESE,122,0.0,0.0,77,0.00,CLR,,0.00,WeatherDisplay:10.37,2013-04-25 12:51:00,
2013-04-25 05:56:00,55.1,47.7,29.90,ESE,115,1.2,1.2,76,0.00,CLR,,0.00,WeatherDisplay:10.37,2013-04-25 12:56:00,
2013-04-25 06:01:00,55.0,47.6,29.90,ESE,107,0.0,0.0,76,0.00,CLR,,0.00,WeatherDisplay:10.37,2013-04-25 13:01:00,
2013-04-25 06:06:00,54.9,47.5,29.91,ESE,110,0.0,0.0,76,0.00,CLR,,0.00,WeatherDisplay:10.37,2013-04-25 13:06:00,
2013-04-25 06:11:00,54.9,47.5,29.91,ESE,120,1.2,0.0,76,0.00,CLR,,0.00,WeatherDisplay:10.37,2013-04-25 13:11:00,
2013-04-25 06:16:00,54.8,47.7,29.91,ESE,110,0.0,0.0,77,0.00,CLR,,0.00,WeatherDisplay:10.37,2013-04-25 13:16:00,
2013-04-25 06:21:00,54.8,47.7,29.92,ESE,123,0.0,0.0,77,0.00,CLR,,0.00,WeatherDisplay:10.37,2013-04-25 13:21:00,
2013-04-25 06:26:00,54.8,47.7,29.92,ESE,122,0.0,0.1,77,0.00,CLR,,0.00,WeatherDisplay:10.37,2013-04-25 13:26:00,
2013-04-25 06:31:00,54.9,47.8,29.92,ESE,122,1.2,0.0,77,0.00,CLR,,0.00,WeatherDisplay:10.37,2013-04-25 13:31:00,
2013-04-25 06:36:00,55.0,47.9,29.93,SE,126,1.2,0.0,77,0.00,CLR,,0.00,WeatherDisplay:10.37,2013-04-25 13:36:00,
2013-04-25 06:41:00,55.1,48.0,29.93,SE,125,1.2,1.2,77,0.00,CLR,,0.00,WeatherDisplay:10.37,2013-04-25 13:41:00,
2013-04-25 06:46:00,55.2,47.8,29.93,SE,126,0.0,0.0,76,0.00,CLR,,0.00,WeatherDisplay:10.37,2013-04-25 13:46:00,
2013-04-25 06:51:00,55.4,48.0,29.93,SE,126,0.0,0.1,76,0.00,CLR,,0.00,WeatherDisplay:10.37,2013-04-25 13:51:00,
2013-04-25 06:56:00,55.6,47.8,29.94,SE,126,1.2,0.0,75,0.00,CLR,,0.00,WeatherDisplay:10.37,2013-04-25 13:56:00,
2013-04-25 07:01:00,55.9,48.1,29.94,SE,134,1.2,1.2,75,0.00,CLR,,0.00,WeatherDisplay:10.37,2013-04-25 14:01:00,
2013-04-25 07:06:00,56.1,47.9,29.94,ESE,114,0.0,0.2,74,0.00,CLR,,0.00,WeatherDisplay:10.37,2013-04-25 14:06:00,
2013-04-25 07:11:00,56.5,48.3,29.94,ESE,120,1.2,0.0,74,0.00,CLR,,0.00,WeatherDisplay:10.37,2013-04-25 14:11:00,
2013-04-25 07:16:00,56.8,48.6,29.94,SE,128,1.2,0.0,74,0.00,CLR,,0.00,WeatherDisplay:10.37,2013-04-25 14:16:00,
2013-04-25 07:21:00,57.1,48.5,29.94,East,86,1.2,0.0,73,0.00,CLR,,0.00,WeatherDisplay:10.37,2013-04-25 14:21:00,
2013-04-25 07:26:00,57.4,48.8,29.95,SE,136,0.0,0.0,73,0.00,CLR,,0.00,WeatherDisplay:10.37,2013-04-25 14:26:00,
2013-04-25 07:31:00,57.8,48.8,29.95,SE,131,1.2,1.2,72,0.00,CLR,,0.00,WeatherDisplay:10.37,2013-04-25 14:31:00,
2013-04-25 07:36:00,58.0,49.0,29.95,ESE,114,1.2,1.2,72,0.00,CLR,,0.00,WeatherDisplay:10.37,2013-04-25 14:36:00,
2013-04-25 07:41:00,58.3,49.3,29.95,ESE,123,1.0,0.0,72,0.00,CLR,,0.00,WeatherDisplay:10.37,2013-04-25 14:41:00,
2013-04-25 07:46:00,58.5,49.1,29.96,SE,133,1.2,0.0,71,0.00,CLR,,0.00,WeatherDisplay:10.37,2013-04-25 14:46:00,
2013-04-25 07:51:00,58.8,49.0,29.96,ESE,122,0.0,0.0,70,0.00,CLR,,0.00,WeatherDisplay:10.37,2013-04-25 14:51:00,
2013-04-25 07:56:00,59.2,49.0,29.96,SE,126,1.2,1.2,69,0.00,CLR,,0.00,WeatherDisplay:10.37,2013-04-25 14:56:00,
2013-04-25 08:01:00,59.3,49.1,29.96,WSW,245,1.2,0.0,69,0.00,CLR,,0.00,WeatherDisplay:10.37,2013-04-25 15:01:00,
2013-04-25 08:06:00,59.5,49.7,29.96,WSW,253,0.0,0.0,70,0.00,CLR,,0.00,WeatherDisplay:10.37,2013-04-25 15:06:00,
2013-04-25 08:11:00,59.8,49.6,29.97,East,101,1.0,1.0,69,0.00,CLR,,0.00,WeatherDisplay:10.37,2013-04-25 15:11:00,
2013-04-25 08:16:00,60.1,49.5,29.97,ESE,120,1.2,0.0,68,0.00,CLR,,0.00,WeatherDisplay:10.37,2013-04-25 15:16:00,
2013-04-25 08:21:00,60.3,49.3,29.97,ESE,115,1.2,1.2,67,0.00,CLR,,0.00,WeatherDisplay:10.37,2013-04-25 15:21:00,
2013-04-25 08:26:00,60.4,49.4,29.97,ESE,120,1.2,0.0,67,0.00,CLR,,0.00,WeatherDisplay:10.37,2013-04-25 15:26:00,
2013-04-25 08:31:00,60.7,50.1,29.97,South,172,0.0,0.0,68,0.00,CLR,,0.00,WeatherDisplay:10.37,2013-04-25 15:31:00,
2013-04-25 08:36:00,60.9,49.9,29.98,SSE,155,1.2,0.0,67,0.00,CLR,,0.00,WeatherDisplay:10.37,2013-04-25 15:36:00,
2013-04-25 08:41:00,61.0,49.6,29.98,SW,232,0.0,0.0,66,0.00,CLR,,0.00,WeatherDisplay:10.37,2013-04-25 15:41:00,
2013-04-25 08:46:00,60.9,49.5,29.98,SSW,212,1.2,0.0,66,0.00,CLR,,0.00,WeatherDisplay:10.37,2013-04-25 15:46:00,
2013-04-25 08:51:00,61.1,50.1,29.98,WSW,248,0.0,0.0,67,0.00,CLR,,0.00,WeatherDisplay:10.37,2013-04-25 15:51:00,
2013-04-25 08:56:00,61.4,50.7,29.99,WNW,288,1.2,1.2,68,0.00,CLR,,0.00,WeatherDisplay:10.37,2013-04-25 15:56:00,
2013-04-25 09:01:00,61.8,50.7,29.99,WSW,248,0.0,0.0,67,0.00,CLR,,0.00,WeatherDisplay:10.37,2013-04-25 16:01:00,
2013-04-25 09:06:00,62.1,50.6,29.99,South,174,0.0,0.0,66,0.00,CLR,,0.00,WeatherDisplay:10.37,2013-04-25 16:06:00,
2013-04-25 09:11:00,62.2,50.3,29.99,SSW,204,0.0,0.0,65,0.00,CLR,,0.00,WeatherDisplay:10.37,2013-04-25 16:11:00,
2013-04-25 09:16:00,62.3,51.2,29.99,WSW,238,0.0,0.0,67,0.00,CLR,,0.00,WeatherDisplay:10.37,2013-04-25 16:16:00,
2013-04-25 09:21:00,62.5,50.2,29.99,West,267,1.2,1.2,64,0.00,CLR,,0.00,WeatherDisplay:10.37,2013-04-25 16:21:00,
2013-04-25 09:26:00,62.4,50.5,29.99,WSW,246,1.2,1.2,65,0.00,CLR,,0.00,WeatherDisplay:10.37,2013-04-25 16:26:00,
2013-04-25 09:31:00,62.7,50.3,30.00,SW,232,1.2,0.0,64,0.00,CLR,,0.00,WeatherDisplay:10.37,2013-04-25 16:31:00,
2013-04-25 09:36:00,62.9,51.0,30.00,SE,132,1.2,0.0,65,0.00,CLR,,0.00,WeatherDisplay:10.37,2013-04-25 16:36:00,
2013-04-25 09:41:00,63.2,50.8,30.00,WSW,239,0.0,0.3,64,0.00,CLR,,0.00,WeatherDisplay:10.37,2013-04-25 16:41:00,
2013-04-25 09:46:00,63.5,51.5,30.00,WSW,238,1.2,1.2,65,0.00,CLR,,0.00,WeatherDisplay:10.37,2013-04-25 16:46:00,
2013-04-25 09:51:00,63.8,51.4,30.00,SW,230,1.2,1.2,64,0.00,CLR,,0.00,WeatherDisplay:10.37,2013-04-25 16:51:00,
2013-04-25 09:56:00,64.0,51.1,30.00,SW,215,2.3,0.0,63,0.00,CLR,,0.00,WeatherDisplay:10.37,2013-04-25 16:56:00,
2013-04-25 10:01:00,64.3,51.4,30.00,SSE,166,0.0,0.2,63,0.00,CLR,,0.00,WeatherDisplay:10.37,2013-04-25 17:01:00,
2013-04-25 10:06:00,64.4,51.5,30.00,SSW,212,1.2,0.0,63,0.00,CLR,,0.00,WeatherDisplay:10.37,2013-04-25 17:06:00,
2013-04-25 10:11:00,64.6,51.3,30.00,WSW,250,1.0,1.0,62,0.00,CLR,,0.00,WeatherDisplay:10.37,2013-04-25 17:11:00,
2013-04-25 10:16:00,65.1,51.3,30.00,SW,233,1.2,1.2,61,0.00,CLR,,0.00,WeatherDisplay:10.37,2013-04-25 17:16:00,
2013-04-25 10:21:00,65.2,51.0,30.00,WSW,238,1.2,0.0,60,0.00,CLR,,0.00,WeatherDisplay:10.37,2013-04-25 17:21:00,
2013-04-25 10:26:00,65.5,51.2,30.00,WSW,238,0.0,0.0,60,0.00,CLR,,0.00,WeatherDisplay:10.37,2013-04-25 17:26:00,
2013-04-25 10:31:00,65.8,50.6,30.00,WSW,252,0.0,0.0,58,0.00,CLR,,0.00,WeatherDisplay:10.37,2013-04-25 17:31:00,
2013-04-25 10:36:00,65.5,50.8,30.00,WSW,252,0.0,0.1,59,0.00,CLR,,0.00,WeatherDisplay:10.37,2013-04-25 17:36:00,
2013-04-25 10:41:00,65.8,51.1,30.00,SW,215,4.6,4.6,59,0.00,CLR,,0.00,WeatherDisplay:10.37,2013-04-25 17:41:00,
2013-04-25 10:46:00,66.2,51.4,30.00,WSW,253,1.2,1.2,59,0.00,CLR,,0.00,WeatherDisplay:10.37,2013-04-25 17:46:00,
2013-04-25 10:51:00,66.4,51.2,30.00,South,180,1.2,1.2,58,0.00,CLR,,0.00,WeatherDisplay:10.37,2013-04-25 17:51:00,
2013-04-25 10:56:00,66.7,51.0,30.00,WSW,240,1.2,0.0,57,0.00,CLR,,0.00,WeatherDisplay:10.37,2013-04-25 17:56:00,
2013-04-25 11:01:00,66.9,51.2,30.00,WSW,240,1.2,1.2,57,0.00,CLR,,0.00,WeatherDisplay:10.37,2013-04-25 18:01:00,
2013-04-25 11:06:00,67.3,50.6,30.00,WSW,243,1.2,1.2,55,0.00,CLR,,0.00,WeatherDisplay:10.37,2013-04-25 18:06:00,
2013-04-25 11:11:00,67.6,51.3,30.00,South,188,5.8,5.8,56,0.00,CLR,,0.00,WeatherDisplay:10.37,2013-04-25 18:11:00,
2013-04-25 11:16:00,67.9,50.6,30.00,SSW,205,2.3,0.0,54,0.00,CLR,,0.00,WeatherDisplay:10.37,2013-04-25 18:16:00,
2013-04-25 11:21:00,67.9,50.6,30.00,SW,224,4.0,4.0,54,0.00,CLR,,0.00,WeatherDisplay:10.37,2013-04-25 18:21:00,
2013-04-25 11:26:00,68.6,51.3,30.00,SSW,193,1.0,1.0,54,0.00,CLR,,0.00,WeatherDisplay:10.37,2013-04-25 18:26:00,
2013-04-25 11:31:00,69.3,51.9,30.00,West,265,1.2,1.2,54,0.00,CLR,,0.00,WeatherDisplay:10.37,2013-04-25 18:31:00,
2013-04-25 11:36:00,69.7,50.8,30.00,SW,215,1.2,1.2,51,0.00,CLR,,0.00,WeatherDisplay:10.37,2013-04-25 18:36:00,
2013-04-25 11:41:00,70.0,51.0,30.00,SW,219,3.5,3.5,51,0.00,CLR,,0.00,WeatherDisplay:10.37,2013-04-25 18:41:00,
2013-04-25 11:46:00,70.3,51.8,30.00,North,359,1.2,1.2,52,0.00,CLR,,0.00,WeatherDisplay:10.37,2013-04-25 18:46:00,
2013-04-25 11:51:00,70.5,52.5,30.00,SSW,212,1.2,0.0,53,0.00,CLR,,0.00,WeatherDisplay:10.37,2013-04-25 18:51:00,
2013-04-25 11:56:00,71.2,52.7,30.00,WNW,285,2.3,2.3,52,0.00,CLR,,0.00,WeatherDisplay:10.37,2013-04-25 18:56:00,
2013-04-25 12:01:00,71.7,52.6,29.99,ESE,112,1.2,1.2,51,0.00,CLR,,0.00,WeatherDisplay:10.37,2013-04-25 19:01:00,
2013-04-25 12:06:00,72.2,52.5,29.99,WSW,243,1.2,1.2,50,0.00,CLR,,0.00,WeatherDisplay:10.37,2013-04-25 19:06:00,
2013-04-25 12:11:00,72.6,52.3,29.99,NW,314,1.2,1.2,49,0.00,CLR,,0.00,WeatherDisplay:10.37,2013-04-25 19:11:00,
2013-04-25 12:16:00,73.1,52.2,29.99,NNE,18,3.5,3.5,48,0.00,CLR,,0.00,WeatherDisplay:10.37,2013-04-25 19:16:00,
2013-04-25 12:21:00,72.8,53.6,29.99,North,351,1.2,0.0,51,0.00,CLR,,0.00,WeatherDisplay:10.37,2013-04-25 19:21:00,
2013-04-25 12:26:00,73.0,52.7,29.99,SSE,150,2.0,2.0,49,0.00,CLR,,0.00,WeatherDisplay:10.37,2013-04-25 19:26:00,
2013-04-25 12:31:00,73.5,52.6,29.98,WSW,240,1.2,1.2,48,0.00,CLR,,0.00,WeatherDisplay:10.37,2013-04-25 19:31:00,
2013-04-25 12:36:00,73.7,52.8,29.98,ESE,105,1.2,0.0,48,0.00,CLR,,0.00,WeatherDisplay:10.37,2013-04-25 19:36:00,
2013-04-25 12:41:00,73.7,52.8,29.98,West,274,1.2,1.2,48,0.00,CLR,,0.00,WeatherDisplay:10.37,2013-04-25 19:41:00,
2013-04-25 12:46:00,74.0,52.5,29.98,NNW,345,2.3,2.3,47,0.00,CLR,,0.00,WeatherDisplay:10.37,2013-04-25 19:46:00,
2013-04-25 12:51:00,74.2,53.2,29.98,SW,215,1.2,1.2,48,0.00,CLR,,0.00,WeatherDisplay:10.37,2013-04-25 19:51:00,
2013-04-25 12:56:00,74.3,52.8,29.98,NW,311,2.3,2.3,47,0.00,CLR,,0.00,WeatherDisplay:10.37,2013-04-25 19:56:00,
2013-04-25 13:01:00,74.7,51.3,29.98,South,191,2.3,2.3,44,0.00,CLR,,0.00,WeatherDisplay:10.37,2013-04-25 20:01:00,
2013-04-25 13:06:00,75.0,52.2,29.98,SE,131,2.3,2.3,45,0.00,CLR,,0.00,WeatherDisplay:10.37,2013-04-25 20:06:00,
2013-04-25 13:11:00,75.2,53.0,29.98,WSW,243,2.3,2.3,46,0.00,CLR,,0.00,WeatherDisplay:10.37,2013-04-25 20:11:00,
2013-04-25 13:16:00,75.2,53.6,29.97,West,274,0.0,0.2,47,0.00,CLR,,0.00,WeatherDisplay:10.37,2013-04-25 20:16:00,
2013-04-25 13:21:00,75.9,53.6,29.97,North,357,0.0,0.0,46,0.00,CLR,,0.00,WeatherDisplay:10.37,2013-04-25 20:21:00,
2013-04-25 13:26:00,76.4,53.5,29.97,East,101,2.0,2.0,45,0.00,CLR,,0.00,WeatherDisplay:10.37,2013-04-25 20:26:00,
2013-04-25 13:31:00,76.8,53.2,29.97,SSW,193,1.2,1.2,44,0.00,CLR,,0.00,WeatherDisplay:10.37,2013-04-25 20:31:00,
2013-04-25 13:36:00,76.6,53.1,29.97,WSW,243,1.2,1.2,44,0.00,CLR,,0.00,WeatherDisplay:10.37,2013-04-25 20:36:00,
2013-04-25 13:41:00,76.4,55.3,29.97,SW,218,1.2,0.0,48,0.00,CLR,,0.00,WeatherDisplay:10.37,2013-04-25 20:41:00,
2013-04-25 13:46:00,77.0,54.0,29.97,East,98,1.2,1.2,45,0.00,CLR,,0.00,WeatherDisplay:10.37,2013-04-25 20:46:00,
2013-04-25 13:51:00,77.4,53.8,29.97,NNW,345,2.3,2.3,44,0.00,CLR,,0.00,WeatherDisplay:10.37,2013-04-25 20:51:00,
2013-04-25 13:56:00,77.1,52.9,29.97,SW,215,3.5,3.5,43,0.00,CLR,,0.00,WeatherDisplay:10.37,2013-04-25 20:56:00,
2013-04-25 14:01:00,76.8,53.2,29.97,West,281,1.2,1.2,44,0.00,CLR,,0.00,WeatherDisplay:10.37,2013-04-25 21:01:00,
2013-04-25 14:06:00,77.0,52.1,29.96,NW,307,2.3,2.3,42,0.00,CLR,,0.00,WeatherDisplay:10.37,2013-04-25 21:06:00,
2013-04-25 14:11:00,76.5,54.2,29.97,WSW,257,1.0,1.0,46,0.00,CLR,,0.00,WeatherDisplay:10.37,2013-04-25 21:11:00,
2013-04-25 14:16:00,77.5,55.1,29.96,SW,231,2.3,2.3,46,0.00,CLR,,0.00,WeatherDisplay:10.37,2013-04-25 21:16:00,
2013-04-25 14:21:00,77.7,54.0,29.96,North,356,3.5,3.5,44,0.00,CLR,,0.00,WeatherDisplay:10.37,2013-04-25 21:21:00,
2013-04-25 14:26:00,77.2,55.4,29.96,NNW,341,2.3,2.3,47,0.00,CLR,,0.00,WeatherDisplay:10.37,2013-04-25 21:26:00,
2013-04-25 14:31:00,77.8,55.4,29.96,South,174,1.2,1.2,46,0.00,CLR,,0.00,WeatherDisplay:10.37,2013-04-25 21:31:00,
2013-04-25 14:36:00,78.1,54.4,29.96,WNW,283,2.3,2.3,44,0.00,CLR,,0.00,WeatherDisplay:10.37,2013-04-25 21:36:00,
2013-04-25 14:41:00,77.7,55.3,29.96,West,278,2.3,0.0,46,0.00,CLR,,0.00,WeatherDisplay:10.37,2013-04-25 21:41:00,
2013-04-25 14:46:00,78.2,54.5,29.96,NNE,22,2.3,2.3,44,0.00,CLR,,0.00,WeatherDisplay:10.37,2013-04-25 21:46:00,
2013-04-25 14:51:00,77.9,54.2,29.96,North,3,3.5,3.5,44,0.00,CLR,,0.00,WeatherDisplay:10.37,2013-04-25 21:51:00,
2013-04-25 14:56:00,78.3,55.2,29.95,West,269,3.5,3.5,45,0.00,CLR,,0.00,WeatherDisplay:10.37,2013-04-25 21:56:00,
2013-04-25 15:01:00,78.5,54.8,29.95,South,172,3.5,3.5,44,0.00,CLR,,0.00,WeatherDisplay:10.37,2013-04-25 22:01:00,
2013-04-25 15:06:00,78.6,54.9,29.95,WSW,245,2.3,2.3,44,0.00,CLR,,0.00,WeatherDisplay:10.37,2013-04-25 22:06:00,
2013-04-25 15:11:00,79.2,54.8,29.95,East,83,3.5,3.5,43,0.00,CLR,,0.00,WeatherDisplay:10.37,2013-04-25 22:11:00,
2013-04-25 15:16:00,79.1,54.7,29.95,SSE,162,3.5,3.5,43,0.00,CLR,,0.00,WeatherDisplay:10.37,2013-04-25 22:16:00,
2013-04-25 15:21:00,79.4,55.0,29.95,NW,322,2.3,2.3,43,0.00,CLR,,0.00,WeatherDisplay:10.37,2013-04-25 22:21:00,
2013-04-25 15:26:00,79.1,54.7,29.95,NNW,333,2.3,2.3,43,0.00,CLR,,0.00,WeatherDisplay:10.37,2013-04-25 22:26:00,
2013-04-25 15:31:00,79.2,55.4,29.95,North,357,2.3,2.3,44,0.00,CLR,,0.00,WeatherDisplay:10.37,2013-04-25 22:31:00,
2013-04-25 15:36:00,79.9,54.8,29.94,South,177,2.3,2.3,42,0.00,CLR,,0.00,WeatherDisplay:10.37,2013-04-25 22:36:00,
2013-04-25 15:41:00,80.0,56.1,29.94,NNW,333,2.3,2.3,44,0.00,CLR,,0.00,WeatherDisplay:10.37,2013-04-25 22:41:00,
2013-04-25 15:46:00,80.0,54.2,29.94,North,360,3.5,3.5,41,0.00,CLR,,0.00,WeatherDisplay:10.37,2013-04-25 22:46:00,
2013-04-25 15:51:00,79.7,53.9,29.94,NW,318,4.0,4.0,41,0.00,CLR,,0.00,WeatherDisplay:10.37,2013-04-25 22:51:00,
2013-04-25 15:56:00,79.7,53.9,29.94,NW,307,3.5,3.5,41,0.00,CLR,,0.00,WeatherDisplay:10.37,2013-04-25 22:56:00,
2013-04-25 16:01:00,79.8,54.7,29.94,NW,316,1.2,1.2,42,0.00,CLR,,0.00,WeatherDisplay:10.37,2013-04-25 23:01:00,
2013-04-25 16:06:00,79.6,54.5,29.94,West,279,2.3,2.3,42,0.00,CLR,,0.00,WeatherDisplay:10.37,2013-04-25 23:06:00,
2013-04-25 16:11:00,79.6,53.8,29.94,North,11,4.6,4.6,41,0.00,CLR,,0.00,WeatherDisplay:10.37,2013-04-25 23:11:00,
2013-04-25 16:16:00,79.7,54.6,29.93,NE,47,3.5,3.5,42,0.00,CLR,,0.00,WeatherDisplay:10.37,2013-04-25 23:16:00,
2013-04-25 16:21:00,79.2,54.1,29.93,NW,316,3.5,3.5,42,0.00,CLR,,0.00,WeatherDisplay:10.37,2013-04-25 23:21:00,
2013-04-25 16:26:00,79.1,54.0,29.93,WNW,283,3.5,3.5,42,0.00,CLR,,0.00,WeatherDisplay:10.37,2013-04-25 23:26:00,
2013-04-25 16:31:00,79.8,54.7,29.93,WNW,294,2.0,2.0,42,0.00,CLR,,0.00,WeatherDisplay:10.37,2013-04-25 23:31:00,
2013-04-25 16:36:00,80.7,55.5,29.93,ENE,72,1.2,1.2,42,0.00,CLR,,0.00,WeatherDisplay:10.37,2013-04-25 23:36:00,
2013-04-25 16:41:00,81.2,54.6,29.93,SW,232,1.2,1.2,40,0.00,CLR,,0.00,WeatherDisplay:10.37,2013-04-25 23:41:00,
2013-04-25 16:46:00,80.9,54.3,29.93,WNW,300,3.5,3.5,40,0.00,CLR,,0.00,WeatherDisplay:10.37,2013-04-25 23:46:00,
2013-04-25 16:51:00,80.9,54.3,29.93,West,281,2.3,2.3,40,0.00,CLR,,0.00,WeatherDisplay:10.37,2013-04-25 23:51:00,
2013-04-25 16:56:00,81.2,54.6,29.93,SSE,167,1.0,0.0,40,0.00,CLR,,0.00,WeatherDisplay:10.37,2013-04-25 23:56:00,
2013-04-25 17:01:00,81.3,54.7,29.93,NW,304,3.0,3.0,40,0.00,CLR,,0.00,WeatherDisplay:10.37,2013-04-26 00:01:00,
2013-04-25 17:06:00,80.9,53.6,29.93,WSW,257,1.2,1.2,39,0.00,CLR,,0.00,WeatherDisplay:10.37,2013-04-26 00:06:00,
2013-04-25 17:11:00,80.8,54.2,29.93,SSE,150,0.0,0.0,40,0.00,CLR,,0.00,WeatherDisplay:10.37,2013-04-26 00:11:00,
2013-04-25 17:16:00,80.7,53.4,29.93,NNW,345,3.5,3.5,39,0.00,CLR,,0.00,WeatherDisplay:10.37,2013-04-26 00:16:00,
2013-04-25 17:21:00,79.8,53.3,29.93,NNW,336,1.2,1.2,40,0.00,CLR,,0.00,WeatherDisplay:10.37,2013-04-26 00:21:00,
2013-04-25 17:26:00,79.9,53.4,29.93,NW,315,2.3,2.3,40,0.00,CLR,,0.00,WeatherDisplay:10.37,2013-04-26 00:26:00,
2013-04-25 17:31:00,79.8,54.0,29.93,WNW,290,1.2,1.2,41,0.00,CLR,,0.00,WeatherDisplay:10.37,2013-04-26 00:31:00,
2013-04-25 17:36:00,80.5,54.0,29.93,NW,307,2.3,2.3,40,0.00,CLR,,0.00,WeatherDisplay:10.37,2013-04-26 00:36:00,
2013-04-25 17:41:00,80.5,53.3,29.93,WNW,294,3.5,3.5,39,0.00,CLR,,0.00,WeatherDisplay:10.37,2013-04-26 00:41:00,
2013-04-25 17:46:00,80.3,53.8,29.93,WSW,257,2.3,2.3,40,0.00,CLR,,0.00,WeatherDisplay:10.37,2013-04-26 00:46:00,
2013-04-25 17:51:00,80.3,53.8,29.93,West,281,2.3,2.3,40,0.00,CLR,,0.00,WeatherDisplay:10.37,2013-04-26 00:51:00,
2013-04-25 17:56:00,80.5,54.0,29.93,West,267,2.3,2.3,40,0.00,CLR,,0.00,WeatherDisplay:10.37,2013-04-26 00:56:00,
2013-04-25 18:01:00,80.7,53.4,29.93,West,266,3.5,3.5,39,0.00,CLR,,0.00,WeatherDisplay:10.37,2013-04-26 01:01:00,
2013-04-25 18:06:00,80.2,54.4,29.94,WNW,294,0.0,0.0,41,0.00,CLR,,0.00,WeatherDisplay:10.37,2013-04-26 01:06:00,
2013-04-25 18:11:00,79.8,52.6,29.94,NNW,342,3.5,3.5,39,0.00,CLR,,0.00,WeatherDisplay:10.37,2013-04-26 01:11:00,
2013-04-25 18:16:00,79.7,53.9,29.93,NW,307,0.0,0.0,41,0.00,CLR,,0.00,WeatherDisplay:10.37,2013-04-26 01:16:00,
2013-04-25 18:21:00,80.1,53.6,29.93,WSW,256,1.2,1.2,40,0.00,CLR,,0.00,WeatherDisplay:10.37,2013-04-26 01:21:00,
2013-04-25 18:26:00,80.0,53.5,29.94,North,6,1.2,0.0,40,0.00,CLR,,0.00,WeatherDisplay:10.37,2013-04-26 01:26:00,
2013-04-25 18:31:00,79.4,53.6,29.94,WSW,253,3.0,3.0,41,0.00,CLR,,0.00,WeatherDisplay:10.37,2013-04-26 01:31:00,
2013-04-25 18:36:00,79.1,53.4,29.94,West,274,1.2,0.0,41,0.00,CLR,,0.00,WeatherDisplay:10.37,2013-04-26 01:36:00,
2013-04-25 18:41:00,79.2,53.5,29.94,West,263,1.2,1.2,41,0.00,CLR,,0.00,WeatherDisplay:10.37,2013-04-26 01:41:00,
2013-04-25 18:46:00,79.0,53.9,29.94,WNW,301,1.0,0.0,42,0.00,CLR,,0.00,WeatherDisplay:10.37,2013-04-26 01:46:00,
2013-04-25 18:51:00,79.0,53.3,29.94,SSW,198,0.0,0.0,41,0.00,CLR,,0.00,WeatherDisplay:10.37,2013-04-26 01:51:00,
2013-04-25 18:56:00,78.8,53.8,29.94,West,266,1.2,0.0,42,0.00,CLR,,0.00,WeatherDisplay:10.37,2013-04-26 01:56:00,
2013-04-25 19:01:00,78.5,53.5,29.94,WSW,247,1.2,1.2,42,0.00,CLR,,0.00,WeatherDisplay:10.37,2013-04-26 02:01:00,
2013-04-25 19:06:00,77.9,53.6,29.94,West,281,0.0,0.0,43,0.00,CLR,,0.00,WeatherDisplay:10.37,2013-04-26 02:06:00,
2013-04-25 19:11:00,77.1,53.5,29.94,West,269,1.2,1.2,44,0.00,CLR,,0.00,WeatherDisplay:10.37,2013-04-26 02:11:00,
2013-04-25 19:16:00,76.4,53.5,29.94,WSW,246,1.2,0.0,45,0.00,CLR,,0.00,WeatherDisplay:10.37,2013-04-26 02:16:00,
2013-04-25 19:21:00,75.8,53.5,29.94,West,280,1.2,1.2,46,0.00,CLR,,0.00,WeatherDisplay:10.37,2013-04-26 02:21:00,
2013-04-25 19:26:00,75.2,53.0,29.95,West,264,0.0,0.1,46,0.00,CLR,,0.00,WeatherDisplay:10.37,2013-04-26 02:26:00,
2013-04-25 19:31:00,74.8,52.6,29.95,West,271,0.0,0.0,46,0.00,CLR,,0.00,WeatherDisplay:10.37,2013-04-26 02:31:00,
2013-04-25 19:36:00,74.3,52.8,29.95,West,271,1.0,1.0,47,0.00,CLR,,0.00,WeatherDisplay:10.37,2013-04-26 02:36:00,
2013-04-25 19:41:00,73.9,53.0,29.95,West,271,1.2,1.2,48,0.00,CLR,,0.00,WeatherDisplay:10.37,2013-04-26 02:41:00,
2013-04-25 19:46:00,73.5,52.6,29.95,West,270,1.2,1.2,48,0.00,CLR,,0.00,WeatherDisplay:10.37,2013-04-26 02:46:00,
2013-04-25 19:51:00,73.2,52.9,29.95,West,270,0.0,0.0,49,0.00,CLR,,0.00,WeatherDisplay:10.37,2013-04-26 02:51:00,
2013-04-25 19:56:00,72.8,53.1,29.96,West,270,0.0,0.0,50,0.00,CLR,,0.00,WeatherDisplay:10.37,2013-04-26 02:56:00,
2013-04-25 20:01:00,72.4,53.2,29.96,West,269,0.0,0.0,51,0.00,CLR,,0.00,WeatherDisplay:10.37,2013-04-26 03:01:00,
2013-04-25 20:06:00,71.9,52.8,29.96,West,270,0.0,0.0,51,0.00,CLR,,0.00,WeatherDisplay:10.37,2013-04-26 03:06:00,
2013-04-25 20:11:00,71.6,53.0,29.96,West,270,0.0,0.0,52,0.00,CLR,,0.00,WeatherDisplay:10.37,2013-04-26 03:11:00,
2013-04-25 20:16:00,71.3,52.8,29.97,West,270,0.0,0.0,52,0.00,CLR,,0.00,WeatherDisplay:10.37,2013-04-26 03:16:00,
2013-04-25 20:21:00,71.0,53.0,29.97,West,270,0.0,0.0,53,0.00,CLR,,0.00,WeatherDisplay:10.37,2013-04-26 03:21:00,
2013-04-25 20:26:00,70.7,53.2,29.97,West,270,0.0,0.0,54,0.00,CLR,,0.00,WeatherDisplay:10.37,2013-04-26 03:26:00,
2013-04-25 20:31:00,70.4,53.0,29.97,West,270,0.0,0.0,54,0.00,CLR,,0.00,WeatherDisplay:10.37,2013-04-26 03:31:00,
2013-04-25 20:36:00,70.0,53.1,29.97,West,269,0.0,0.0,55,0.00,CLR,,0.00,WeatherDisplay:10.37,2013-04-26 03:36:00,
2013-04-25 20:41:00,69.6,53.2,29.97,West,270,0.0,0.0,56,0.00,CLR,,0.00,WeatherDisplay:10.37,2013-04-26 03:41:00,
2013-04-25 20:46:00,69.1,53.2,29.97,West,269,0.0,0.0,57,0.00,CLR,,0.00,WeatherDisplay:10.37,2013-04-26 03:46:00,
2013-04-25 20:51:00,68.7,53.3,29.98,West,270,0.0,0.0,58,0.00,CLR,,0.00,WeatherDisplay:10.37,2013-04-26 03:51:00,
2013-04-25 20:56:00,68.3,52.9,29.98,West,270,0.0,0.0,58,0.00,CLR,,0.00,WeatherDisplay:10.37,2013-04-26 03:56:00,
2013-04-25 21:01:00,68.0,53.1,29.98,West,270,0.0,0.0,59,0.00,CLR,,0.00,WeatherDisplay:10.37,2013-04-26 04:01:00,
2013-04-25 21:06:00,67.9,53.0,29.98,West,270,0.0,0.0,59,0.00,CLR,,0.00,WeatherDisplay:10.37,2013-04-26 04:06:00,
2013-04-25 21:11:00,68.2,53.8,29.98,West,270,0.0,0.0,60,0.00,CLR,,0.00,WeatherDisplay:10.37,2013-04-26 04:11:00,
2013-04-25 21:16:00,68.2,53.3,29.99,West,270,0.0,0.0,59,0.00,CLR,,0.00,WeatherDisplay:10.37,2013-04-26 04:16:00,
2013-04-25 21:21:00,67.9,53.5,29.99,West,270,0.0,0.0,60,0.00,CLR,,0.00,WeatherDisplay:10.37,2013-04-26 04:21:00,
2013-04-25 21:26:00,67.5,53.1,29.99,West,270,0.0,0.0,60,0.00,CLR,,0.00,WeatherDisplay:10.37,2013-04-26 04:26:00,
2013-04-25 21:31:00,67.1,53.2,29.99,West,269,0.0,0.0,61,0.00,CLR,,0.00,WeatherDisplay:10.37,2013-04-26 04:31:00,
2013-04-25 21:36:00,66.7,53.3,29.99,West,269,0.0,0.0,62,0.00,CLR,,0.00,WeatherDisplay:10.37,2013-04-26 04:36:00,
2013-04-25 21:41:00,66.3,52.9,30.00,West,270,0.0,0.0,62,0.00,CLR,,0.00,WeatherDisplay:10.37,2013-04-26 04:41:00,
2013-04-25 21:46:00,66.1,52.7,30.00,West,270,0.0,0.0,62,0.00,CLR,,0.00,WeatherDisplay:10.37,2013-04-26 04:46:00,
2013-04-25 21:51:00,66.1,52.7,30.00,West,270,0.0,0.0,62,0.00,CLR,,0.00,WeatherDisplay:10.37,2013-04-26 04:51:00,
2013-04-25 21:56:00,66.0,53.0,30.00,West,270,0.0,0.0,63,0.00,CLR,,0.00,WeatherDisplay:10.37,2013-04-26 04:56:00,
2013-04-25 22:01:00,65.9,52.9,30.00,West,270,0.0,0.0,63,0.00,CLR,,0.00,WeatherDisplay:10.37,2013-04-26 05:01:00,
2013-04-25 22:06:00,65.6,52.7,30.00,West,270,0.0,0.0,63,0.00,CLR,,0.00,WeatherDisplay:10.37,2013-04-26 05:06:00,
2013-04-25 22:11:00,65.4,52.9,30.00,West,270,0.0,0.0,64,0.00,CLR,,0.00,WeatherDisplay:10.37,2013-04-26 05:11:00,
2013-04-25 22:16:00,65.1,53.5,30.00,West,270,0.0,0.0,66,0.00,CLR,,0.00,WeatherDisplay:10.37,2013-04-26 05:16:00,
2013-04-25 22:21:00,64.9,53.7,30.00,West,269,0.0,0.0,67,0.00,CLR,,0.00,WeatherDisplay:10.37,2013-04-26 05:21:00,
2013-04-25 22:26:00,64.7,53.5,30.01,West,270,0.0,0.0,67,0.00,CLR,,0.00,WeatherDisplay:10.37,2013-04-26 05:26:00,
2013-04-25 22:31:00,64.4,53.6,30.01,West,270,0.0,0.0,68,0.00,CLR,,0.00,WeatherDisplay:10.37,2013-04-26 05:31:00,
2013-04-25 22:36:00,64.1,53.3,30.01,West,269,0.0,0.0,68,0.00,CLR,,0.00,WeatherDisplay:10.37,2013-04-26 05:36:00,
2013-04-25 22:41:00,63.8,53.0,30.01,West,270,0.0,0.0,68,0.00,CLR,,0.00,WeatherDisplay:10.37,2013-04-26 05:41:00,
2013-04-25 22:46:00,63.6,53.6,30.01,West,270,0.0,0.0,70,0.00,CLR,,0.00,WeatherDisplay:10.37,2013-04-26 05:46:00,
2013-04-25 22:51:00,63.3,53.0,30.01,West,269,0.0,0.0,69,0.00,CLR,,0.00,WeatherDisplay:10.37,2013-04-26 05:51:00,
2013-04-25 22:56:00,63.2,53.3,30.01,West,270,0.0,0.0,70,0.00,CLR,,0.00,WeatherDisplay:10.37,2013-04-26 05:56:00,
2013-04-25 23:01:00,63.0,53.4,30.01,West,270,0.0,0.0,71,0.00,CLR,,0.00,WeatherDisplay:10.37,2013-04-26 06:01:00,
2013-04-25 23:06:00,63.1,53.5,30.01,West,269,0.0,0.0,71,0.00,CLR,,0.00,WeatherDisplay:10.37,2013-04-26 06:06:00,
2013-04-25 23:11:00,63.1,53.5,30.01,West,270,0.0,0.0,71,0.00,CLR,,0.00,WeatherDisplay:10.37,2013-04-26 06:11:00,
2013-04-25 23:16:00,63.0,53.1,30.01,West,270,0.0,0.0,70,0.00,CLR,,0.00,WeatherDisplay:10.37,2013-04-26 06:16:00,
2013-04-25 23:21:00,62.8,52.9,30.02,West,270,0.0,0.0,70,0.00,CLR,,0.00,WeatherDisplay:10.37,2013-04-26 06:21:00,
2013-04-25 23:26:00,62.6,52.7,30.02,West,270,0.0,0.0,70,0.00,CLR,,0.00,WeatherDisplay:10.37,2013-04-26 06:26:00,
2013-04-25 23:31:00,62.6,53.1,30.02,West,269,0.0,0.0,71,0.00,CLR,,0.00,WeatherDisplay:10.37,2013-04-26 06:31:00,
2013-04-25 23:36:00,62.5,53.0,30.02,West,270,0.0,0.0,71,0.00,CLR,,0.00,WeatherDisplay:10.37,2013-04-26 06:36:00,
2013-04-25 23:41:00,62.5,53.0,30.02,West,270,0.0,0.0,71,0.00,CLR,,0.00,WeatherDisplay:10.37,2013-04-26 06:41:00,
2013-04-25 23:46:00,62.3,52.8,30.02,West,269,0.0,0.0,71,0.00,CLR,,0.00,WeatherDisplay:10.37,2013-04-26 06:46:00,
2013-04-25 23:51:00,62.0,52.9,30.03,West,270,0.0,0.0,72,0.00,CLR,,0.00,WeatherDisplay:10.37,2013-04-26 06:51:00,
2013-04-25 23:56:00,61.8,52.7,30.03,West,270,0.0,0.0,72,0.00,CLR,,0.00,WeatherDisplay:10.37,2013-04-26 06:56:00,